TimeCDT,TemperatureF,Dew PointF,Humidity,Sea Level PressureIn,VisibilityMPH,Wind Direction,Wind SpeedMPH,Gust SpeedMPH,PrecipitationIn,Events,Conditions,WindDirDegrees,DateUTC
12:12 AM,41.0,37.4,87,29.88,10.0,NW,11.5,-,N/A,,Scattered Clouds,320,2014-04-08 05:12:00
12:33 AM,39.2,35.6,87,29.88,10.0,NW,9.2,-,N/A,,Clear,310,2014-04-08 05:33:00
12:53 AM,39.2,35.6,87,29.88,10.0,WNW,10.4,-,N/A,,Clear,300,2014-04-08 05:53:00
1:12 AM,37.4,35.6,93,29.88,10.0,WNW,10.4,-,N/A,,Clear,300,2014-04-08 06:12:00
1:33 AM,37.4,35.6,93,29.88,10.0,WNW,10.4,-,N/A,,Clear,300,2014-04-08 06:33:00
1:53 AM,37.4,35.6,93,29.88,10.0,WNW,10.4,-,N/A,,Scattered Clouds,300,2014-04-08 06:53:00
2:12 AM,37.4,35.6,93,29.88,10.0,WNW,11.5,-,N/A,,Scattered Clouds,300,2014-04-08 07:12:00
2:33 AM,37.4,35.6,93,29.88,10.0,NW,11.5,-,N/A,,Mostly Cloudy,310,2014-04-08 07:33:00
2:53 AM,39.2,35.6,87,29.88,10.0,NW,16.1,19.6,N/A,,Overcast,310,2014-04-08 07:53:00
3:12 AM,39.2,35.6,87,29.88,10.0,NW,15.0,20.7,N/A,,Overcast,320,2014-04-08 08:12:00
3:33 AM,39.2,37.4,93,29.88,10.0,NW,15.0,-,N/A,,Overcast,310,2014-04-08 08:33:00
3:53 AM,39.2,37.4,93,29.89,10.0,NW,15.0,-,N/A,,Overcast,320,2014-04-08 08:53:00
4:12 AM,39.2,37.4,93,29.89,10.0,NNW,17.3,-,N/A,,Overcast,330,2014-04-08 09:12:00
4:33 AM,39.2,37.4,93,29.90,10.0,NNW,17.3,-,N/A,,Light Drizzle,330,2014-04-08 09:33:00
4:52 AM,37.4,37.4,100,29.90,10.0,NNW,17.3,-,N/A,Rain,Light Rain,330,2014-04-08 09:52:00
5:12 AM,37.4,37.4,100,29.91,10.0,NW,15.0,-,N/A,,Light Drizzle,320,2014-04-08 10:12:00
5:33 AM,37.4,37.4,100,29.92,10.0,NW,13.8,-,N/A,,Overcast,320,2014-04-08 10:33:00
5:52 AM,37.4,37.4,100,29.92,10.0,NW,18.4,23.0,N/A,,Overcast,310,2014-04-08 10:52:00
6:12 AM,37.4,35.6,93,29.93,10.0,NW,19.6,24.2,N/A,,Overcast,320,2014-04-08 11:12:00
6:33 AM,37.4,35.6,93,29.94,10.0,NW,19.6,24.2,N/A,,Overcast,320,2014-04-08 11:33:00
6:52 AM,37.4,35.6,93,29.95,10.0,NW,20.7,-,N/A,,Overcast,320,2014-04-08 11:52:00
7:12 AM,37.4,35.6,93,29.96,10.0,NW,19.6,24.2,N/A,,Overcast,320,2014-04-08 12:12:00
7:33 AM,35.6,33.8,93,29.97,10.0,NW,18.4,24.2,N/A,,Overcast,320,2014-04-08 12:33:00
7:52 AM,35.6,33.8,93,29.98,10.0,NW,19.6,24.2,N/A,,Overcast,310,2014-04-08 12:52:00
8:12 AM,33.8,33.8,100,29.98,10.0,NW,17.3,25.3,N/A,,Overcast,320,2014-04-08 13:12:00
8:33 AM,33.8,32.0,93,29.99,10.0,NW,21.9,26.5,N/A,,Overcast,320,2014-04-08 13:33:00
8:52 AM,33.8,30.2,87,30.00,10.0,NW,25.3,29.9,N/A,,Overcast,320,2014-04-08 13:52:00
9:12 AM,33.8,30.2,87,30.01,10.0,NW,20.7,28.8,N/A,,Overcast,320,2014-04-08 14:12:00
9:33 AM,35.6,32.0,87,30.01,10.0,NW,17.3,24.2,N/A,,Overcast,320,2014-04-08 14:33:00
9:52 AM,35.6,30.2,81,30.02,10.0,NW,18.4,25.3,N/A,,Overcast,320,2014-04-08 14:52:00
10:12 AM,35.6,30.2,81,30.02,10.0,NW,23.0,28.8,N/A,,Overcast,320,2014-04-08 15:12:00
10:32 AM,35.6,30.2,81,30.03,10.0,NW,18.4,24.2,N/A,,Overcast,320,2014-04-08 15:32:00
10:52 AM,35.6,30.2,81,30.04,10.0,NW,20.7,28.8,N/A,,Overcast,320,2014-04-08 15:52:00
11:13 AM,35.6,30.2,81,30.04,10.0,NW,23.0,-,N/A,,Overcast,320,2014-04-08 16:13:00
11:32 AM,37.4,30.2,75,30.04,10.0,NNW,23.0,28.8,N/A,,Overcast,330,2014-04-08 16:32:00
11:52 AM,39.2,30.2,70,30.05,10.0,NNW,19.6,26.5,N/A,,Mostly Cloudy,340,2014-04-08 16:52:00
12:13 PM,41.0,32.0,70,30.05,10.0,NNW,20.7,26.5,N/A,,Mostly Cloudy,330,2014-04-08 17:13:00
12:32 PM,42.8,33.8,70,30.04,10.0,NW,16.1,21.9,N/A,,Scattered Clouds,320,2014-04-08 17:32:00
12:52 PM,42.8,33.8,70,30.04,10.0,NNW,16.1,-,N/A,,Scattered Clouds,340,2014-04-08 17:52:00
1:13 PM,44.6,33.8,66,30.04,10.0,NNW,18.4,23.0,N/A,,Scattered Clouds,330,2014-04-08 18:13:00
1:32 PM,44.6,33.8,66,30.04,10.0,NW,16.1,21.9,N/A,,Scattered Clouds,310,2014-04-08 18:32:00
1:52 PM,46.4,33.8,62,30.04,10.0,NNW,18.4,24.2,N/A,,Scattered Clouds,330,2014-04-08 18:52:00
2:13 PM,48.2,32.0,54,30.04,10.0,NW,17.3,24.2,N/A,,Clear,320,2014-04-08 19:13:00
2:32 PM,48.2,32.0,54,30.03,10.0,NW,18.4,25.3,N/A,,Clear,320,2014-04-08 19:32:00
2:52 PM,48.2,30.2,50,30.03,10.0,NW,20.7,25.3,N/A,,Clear,310,2014-04-08 19:52:00
3:13 PM,50.0,32.0,50,30.03,10.0,NW,18.4,25.3,N/A,,Clear,320,2014-04-08 20:13:00
3:32 PM,50.0,30.2,47,30.03,10.0,NW,18.4,27.6,N/A,,Clear,310,2014-04-08 20:32:00
3:52 PM,50.0,28.4,43,30.02,10.0,NNW,19.6,-,N/A,,Clear,330,2014-04-08 20:52:00
4:13 PM,50.0,26.6,40,30.02,10.0,NNW,18.4,23.0,N/A,,Clear,330,2014-04-08 21:13:00
4:32 PM,51.8,28.4,41,30.02,10.0,NNW,12.7,23.0,N/A,,Clear,330,2014-04-08 21:32:00
4:52 PM,51.8,26.6,38,30.01,10.0,NW,17.3,20.7,N/A,,Clear,320,2014-04-08 21:52:00
5:13 PM,51.8,26.6,38,30.02,10.0,NW,11.5,19.6,N/A,,Clear,320,2014-04-08 22:13:00
5:33 PM,50.0,26.6,40,30.02,10.0,NW,12.7,18.4,N/A,,Clear,310,2014-04-08 22:33:00
5:52 PM,50.0,26.6,40,30.03,10.0,NNW,16.1,-,N/A,,Clear,330,2014-04-08 22:52:00
6:13 PM,50.0,26.6,40,30.02,10.0,NNW,16.1,-,N/A,,Clear,340,2014-04-08 23:13:00
6:33 PM,48.2,26.6,43,30.02,10.0,NW,12.7,-,N/A,,Clear,320,2014-04-08 23:33:00
6:52 PM,48.2,28.4,46,30.02,10.0,NW,9.2,-,N/A,,Clear,320,2014-04-08 23:52:00
7:13 PM,46.4,30.2,53,30.03,10.0,NNW,9.2,-,N/A,,Clear,330,2014-04-09 00:13:00
7:33 PM,44.6,32.0,61,30.03,10.0,NW,6.9,-,N/A,,Clear,320,2014-04-09 00:33:00
7:52 PM,44.6,33.8,66,30.04,10.0,WNW,4.6,-,N/A,,Clear,300,2014-04-09 00:52:00
8:13 PM,42.8,33.8,70,30.03,10.0,NW,3.5,-,N/A,,Clear,310,2014-04-09 01:13:00
8:32 PM,39.2,30.2,70,30.03,10.0,NNW,3.5,-,N/A,,Clear,340,2014-04-09 01:32:00
8:52 PM,39.2,32.0,75,30.03,10.0,Calm,Calm,-,N/A,,Clear,0,2014-04-09 01:52:00
9:13 PM,39.2,30.2,70,30.03,10.0,Calm,Calm,-,N/A,,Clear,0,2014-04-09 02:13:00
9:32 PM,39.2,30.2,70,30.02,10.0,Calm,Calm,-,N/A,,Clear,0,2014-04-09 02:32:00
9:52 PM,35.6,30.2,81,30.02,10.0,Calm,Calm,-,N/A,,Clear,0,2014-04-09 02:52:00
10:12 PM,37.4,33.8,87,30.01,10.0,Calm,Calm,-,N/A,,Clear,0,2014-04-09 03:12:00
10:32 PM,37.4,33.8,87,30.01,10.0,Calm,Calm,-,N/A,,Clear,0,2014-04-09 03:32:00
10:53 PM,37.4,32.0,81,30.00,10.0,South,3.5,-,N/A,,Clear,180,2014-04-09 03:53:00
11:12 PM,33.8,30.2,87,29.99,10.0,South,3.5,-,N/A,,Clear,170,2014-04-09 04:12:00
11:32 PM,35.6,30.2,81,29.99,10.0,South,4.6,-,N/A,,Clear,180,2014-04-09 04:32:00
11:53 PM,35.6,30.2,81,29.98,10.0,South,3.5,-,N/A,,Clear,170,2014-04-09 04:53:00